Wind_Speed
35 36 36 37 39 39 39 39 39 39 39 39 40 39 40 40 41 41 41 42 42 42 43 43 43 44 44 44 45 46 47 48 48 46 47 48 48 48 48 48 48 48 47
33 34 35 36 37 37 38 38 38 38 38 39 39 38 38 38 39 39 40 41 41 42 42 43 43 43 44 44 44 45 46 46 46 45 44 45 46 46 46 46 46 46 46
32 33 33 34 35 36 37 37 37 37 37 36 36 37 37 38 38 39 40 41 41 41 42 42 42 43 43 43 43 43 44 44 43 42 42 42 43 43 43 43 43 43 41
33 33 34 34 35 35 36 36 36 36 36 35 36 36 36 37 38 38 39 41 41 41 41 40 41 42 42 42 42 42 42 42 41 40 40 41 41 40 40 39 40 40 40
32 33 33 34 34 35 35 35 36 36 36 36 36 36 37 37 37 37 38 40 41 41 41 40 40 40 40 40 41 40 40 39 39 39 39 39 39 38 38 38 37 37 37
31 32 33 33 34 34 35 35 35 35 36 36 36 36 36 36 36 36 36 37 39 39 39 39 39 38 38 38 38 38 38 37 37 37 37 36 35 35 34 34 35 35 35
30 30 31 32 32 33 34 34 34 34 35 35 35 35 35 35 35 36 36 36 36 36 37 37 36 36 35 35 35 35 35 35 35 35 34 32 32 32 32 31 32 33 33
29 30 30 30 31 32 32 32 32 33 33 34 33 34 34 34 34 34 34 34 34 34 34 33 33 33 33 33 33 33 33 32 32 32 31 30 30 30 30 30 30 30 30
28 29 29 30 30 31 31 31 31 31 32 32 32 32 33 33 33 33 33 33 34 33 32 31 31 31 31 31 31 30 30 29 29 30 30 29 28 28 28 28 28 27 27
28 29 29 29 29 29 30 30 29 29 29 30 31 31 31 31 30 31 31 31 31 32 31 31 30 30 29 29 29 29 28 28 28 27 27 27 26 27 27 27 27 26 26
27 28 28 28 28 28 28 28 28 28 28 28 29 29 29 29 29 29 29 30 30 30 31 30 29 29 29 28 28 28 27 27 26 26 26 26 26 25 25 25 25 24 23
27 27 27 27 27 27 27 27 27 27 27 27 27 27 27 26 27 27 28 28 29 29 28 28 28 28 28 27 28 27 27 26 25 24 24 24 24 23 23 22 22 22 21
26 26 26 25 25 25 25 25 25 25 26 25 25 24 24 24 24 25 26 26 26 26 26 26 26 26 26 25 26 26 25 24 22 22 22 22 23 22 22 21 20 19 19
25 25 24 24 23 23 24 24 24 24 24 24 23 22 22 22 22 23 23 23 23 24 24 24 24 24 24 23 23 22 21 20 20 20 19 20 20 20 19 18 17 17 17
23 22 22 22 22 21 22 23 23 23 22 22 22 21 21 21 21 21 21 21 22 23 23 23 23 22 21 20 19 19 18 18 17 17 18 18 17 17 15 14 15 15 15
21 21 21 20 20 20 21 21 21 21 21 21 21 21 20 20 19 20 20 21 22 22 22 21 21 19 18 17 17 17 17 16 16 16 15 15 15 14 13 13 13 13 13
20 20 20 20 20 20 20 20 19 19 19 19 19 19 19 18 18 18 19 20 21 20 20 19 18 17 16 15 15 15 15 15 14 14 13 13 12 12 12 11 11 11 11
19 19 19 19 19 19 19 19 18 18 18 18 18 18 18 17 17 17 18 19 18 17 16 16 15 15 15 14 14 14 13 12 12 11 11 11 10 10 10 10 10 10 10
18 18 18 17 17 17 17 17 17 17 17 17 17 17 17 16 16 17 16 16 15 15 14 13 13 13 13 13 12 11 11 10 9 9 9 9 9 9 9 9 8 8 7
18 17 17 16 16 16 16 15 15 15 15 15 15 15 15 15 15 15 14 14 13 13 13 12 11 11 11 11 10 10 9 8 8 8 7 7 7 7 7 7 7 7 6
17 16 16 16 16 15 14 14 13 13 13 13 13 13 13 13 12 12 12 11 11 12 11 10 9 9 9 9 9 9 8 8 8 7 6 6 6 6 6 6 6 5 5
15 15 15 15 14 14 13 12 12 11 11 10 10 10 10 10 10 9 9 9 9 9 8 7 7 6 6 6 7 8 7 7 7 6 5 5 5 5 5 4 4 4 4
14 13 13 13 12 11 11 10 9 9 9 8 8 8 7 7 7 7 7 7 6 6 6 6 5 5 5 5 6 7 7 6 6 5 5 5 5 5 4 4 4 4 4
12 12 11 11 10 9 9 8 7 7 7 7 7 6 6 5 5 5 5 5 5 4 5 5 5 5 5 5 5 6 6 6 6 5 5 5 5 5 5 4 4 3 3
11 11 10 10 9 8 7 6 6 6 6 6 6 5 5 4 4 4 4 4 4 4 4 4 4 4 5 5 5 6 6 5 5 5 5 5 5 5 5 4 3 3 2
10 10 10 9 8 7 7 6 6 5 5 5 5 5 4 4 3 3 3 3 4 3 3 3 3 3 4 5 5 6 6 6 5 5 5 5 5 5 4 4 3 3 2
Wind_Direction
266 266 265 265 264 263 263 265 266 267 268 268 268 268 268 269 269 269 270 271 273 274 275 277 277 276 274 273 273 274 276 275 274 272 273 274 273 273 273 273 273 273 273
267 267 266 265 264 264 264 265 266 267 268 269 269 269 269 269 269 270 270 271 273 274 275 276 277 277 276 274 273 275 276 275 275 274 273 273 272 273 273 273 272 272 272
268 268 267 266 265 265 265 266 266 268 269 270 270 270 270 271 271 271 270 272 273 275 276 276 277 277 277 275 275 276 276 274 274 274 273 273 272 273 273 273 273 274 274
269 269 268 267 267 267 267 267 267 268 269 270 270 270 271 271 272 273 274 274 274 275 276 276 276 276 276 275 276 277 276 275 274 274 273 274 274 273 273 273 273 273 274
270 269 268 269 268 268 267 267 267 268 269 270 270 271 271 272 273 275 277 276 275 275 277 278 277 276 275 275 276 276 277 275 275 275 275 275 274 273 272 272 273 274 274
269 268 268 269 269 269 269 268 267 268 269 270 270 271 271 272 273 275 276 277 276 277 277 278 279 277 276 276 276 277 277 276 275 275 276 276 274 273 272 272 273 274 274
269 270 269 269 269 269 269 268 267 268 270 272 272 271 271 272 273 274 275 278 278 278 278 279 279 279 279 279 278 277 276 275 275 275 275 275 272 272 273 274 274 274 274
269 269 270 270 270 270 269 268 268 270 270 271 272 272 272 272 273 274 276 277 278 279 279 279 280 281 281 280 278 278 277 276 274 273 273 272 271 271 273 274 275 274 275
272 271 271 272 272 271 269 269 271 271 272 273 273 273 272 272 273 274 275 277 277 278 279 279 281 282 281 280 278 278 277 275 274 272 271 269 268 271 273 274 275 275 275
275 274 274 275 275 273 271 271 271 272 273 273 274 274 273 273 274 274 275 277 278 278 278 279 280 282 282 279 277 276 275 274 273 272 270 268 267 269 272 273 275 274 272
277 277 277 277 276 275 273 272 272 273 275 276 276 275 274 274 274 274 275 276 277 277 276 278 280 280 280 278 277 275 274 273 273 273 270 268 269 269 270 271 273 273 270
280 280 279 278 277 274 274 273 274 275 276 277 278 276 275 275 275 275 276 276 276 277 277 277 278 279 279 279 276 275 274 273 273 271 270 268 268 271 271 269 270 269 268
283 282 281 281 278 275 273 273 275 276 276 277 278 277 277 277 277 276 276 277 277 277 278 278 279 281 281 279 276 275 275 273 272 271 269 267 267 269 269 268 268 266 265
286 283 282 280 279 277 274 274 275 276 277 277 276 278 279 279 279 278 279 278 278 278 279 280 281 281 281 280 278 274 274 271 270 271 268 266 265 266 265 263 263 263 264
286 284 283 281 279 278 276 275 275 275 275 275 275 277 279 280 280 279 279 279 279 279 280 280 281 280 279 278 276 272 271 271 268 269 266 263 262 263 263 261 261 264 262
286 284 282 280 280 280 280 278 275 274 274 275 275 276 278 279 278 278 280 281 282 282 280 279 278 277 275 274 272 272 272 270 266 265 263 261 257 256 257 259 263 261 258
286 284 281 280 282 283 281 278 275 274 273 274 275 277 278 279 279 280 282 284 285 283 280 278 276 273 271 270 267 267 271 272 268 263 257 252 247 248 252 256 258 256 256
283 283 283 283 284 282 280 277 273 272 273 275 277 278 277 277 278 280 282 284 285 283 281 279 275 271 269 268 266 264 265 265 263 256 250 245 241 245 250 252 251 252 256
282 283 283 283 284 284 281 278 274 273 275 276 276 277 276 276 278 280 281 283 283 282 281 281 278 273 267 263 260 256 253 254 252 245 243 239 240 243 243 242 243 246 254
280 282 283 283 283 284 283 279 277 278 278 276 274 273 275 277 279 280 281 281 278 278 281 280 276 271 265 257 252 244 240 239 236 235 235 235 236 237 236 237 239 243 250
279 282 283 284 283 282 281 280 279 280 278 275 275 274 276 277 279 281 281 279 276 277 277 275 271 267 261 252 242 235 234 233 232 230 230 230 228 231 234 235 233 236 243
277 279 281 283 283 282 281 280 278 277 275 276 277 275 274 274 277 279 281 276 274 272 264 260 259 257 251 242 229 224 226 230 230 223 223 226 227 228 228 229 230 230 231
275 278 280 280 281 282 282 281 278 274 271 273 278 276 271 273 275 276 276 268 266 259 251 247 244 239 230 224 221 216 218 221 221 218 222 226 224 219 222 225 223 225 234
269 272 276 278 279 280 280 278 275 268 263 266 269 268 270 275 272 275 272 259 255 254 246 235 233 229 226 224 217 213 213 213 215 221 224 221 214 211 211 212 216 221 228
264 269 272 273 274 274 274 272 267 257 254 258 261 262 264 267 263 263 262 251 246 243 236 227 226 224 221 216 212 206 204 205 211 213 206 199 195 195 198 202 206 211 218
262 266 268 268 265 264 265 263 260 255 254 251 252 259 260 260 257 251 251 244 238 231 219 213 220 219 210 207 205 202 196 188 185 188 190 186 184 184 186 191 196 204 201
Height
5590 5591 5591 5592 5592 5593 5594 5595 5595 5595 5595 5595 5596 5596 5596 5596 5596 5596 5596 5596 5596 5595 5594 5593 5591 5590 5589 5588 5587 5586 5586 5585 5585 5587 5586 5584 5583 5582 5582 5581 5581 5580 5580
5581 5582 5582 5582 5583 5584 5584 5585 5585 5586 5586 5585 5586 5586 5586 5586 5586 5586 5585 5585 5584 5584 5582 5581 5580 5578 5577 5576 5575 5574 5573 5572 5572 5573 5573 5572 5571 5569 5569 5568 5568 5568 5567
5572 5573 5573 5573 5574 5574 5575 5575 5576 5576 5576 5576 5576 5576 5576 5576 5575 5575 5575 5574 5573 5572 5571 5569 5568 5567 5566 5565 5564 5563 5561 5560 5559 5559 5560 5560 5559 5558 5557 5556 5556 5556 5555
5564 5564 5564 5564 5564 5565 5565 5566 5566 5566 5566 5566 5566 5566 5566 5566 5565 5565 5564 5563 5562 5561 5559 5558 5557 5556 5555 5554 5552 5551 5550 5548 5547 5547 5548 5548 5548 5547 5546 5545 5545 5545 5544
5555 5555 5555 5555 5555 5555 5555 5556 5556 5556 5556 5556 5556 5556 5556 5556 5555 5554 5553 5552 5551 5550 5548 5547 5546 5544 5543 5542 5541 5539 5538 5537 5536 5536 5537 5537 5537 5536 5536 5535 5535 5534 5533
5546 5545 5545 5545 5545 5546 5546 5546 5546 5546 5546 5546 5546 5546 5546 5546 5545 5544 5543 5542 5540 5539 5538 5536 5535 5534 5532 5531 5529 5528 5526 5525 5525 5525 5526 5526 5526 5526 5525 5525 5524 5524 5525
5537 5537 5536 5536 5536 5536 5536 5536 5536 5536 5536 5536 5536 5536 5536 5535 5535 5534 5532 5532 5531 5529 5528 5526 5525 5523 5522 5521 5519 5518 5517 5516 5515 5516 5516 5516 5516 5517 5517 5516 5515 5515 5515
5529 5529 5529 5528 5528 5527 5527 5527 5527 5527 5527 5527 5526 5526 5526 5525 5524 5524 5523 5522 5521 5520 5518 5517 5516 5514 5513 5511 5510 5509 5508 5507 5507 5507 5508 5508 5508 5508 5508 5507 5507 5506 5506
5521 5521 5520 5520 5519 5519 5518 5518 5518 5518 5518 5517 5517 5516 5516 5515 5515 5514 5513 5512 5511 5510 5510 5508 5507 5506 5504 5502 5501 5501 5500 5500 5499 5499 5499 5499 5499 5499 5499 5499 5499 5499 5499
5513 5513 5512 5512 5511 5510 5510 5510 5509 5509 5509 5508 5507 5507 5506 5506 5505 5504 5503 5503 5502 5502 5501 5500 5498 5497 5495 5494 5493 5493 5493 5492 5492 5491 5491 5491 5492 5492 5492 5492 5492 5492 5491
5505 5505 5504 5503 5502 5502 5501 5501 5501 5500 5500 5499 5498 5498 5497 5496 5496 5495 5494 5494 5493 5493 5492 5491 5490 5489 5487 5486 5486 5485 5485 5484 5484 5484 5484 5484 5485 5485 5485 5485 5485 5485 5485
5498 5497 5496 5495 5494 5494 5493 5493 5492 5492 5491 5491 5490 5489 5488 5487 5487 5486 5485 5485 5484 5484 5484 5483 5482 5481 5480 5479 5478 5478 5477 5477 5477 5477 5477 5477 5478 5478 5478 5478 5478 5478 5479
5490 5489 5488 5487 5487 5486 5485 5485 5484 5484 5483 5483 5482 5481 5481 5480 5479 5478 5477 5477 5476 5476 5475 5475 5474 5473 5472 5471 5471 5470 5470 5470 5470 5470 5471 5471 5471 5472 5472 5472 5472 5473 5473
5482 5481 5480 5479 5479 5478 5478 5477 5477 5477 5476 5475 5475 5474 5473 5472 5472 5471 5470 5469 5469 5468 5468 5468 5467 5466 5465 5465 5464 5463 5463 5463 5464 5464 5465 5465 5465 5466 5467 5467 5468 5469 5469
5475 5474 5473 5472 5472 5471 5471 5470 5470 5469 5468 5468 5468 5467 5466 5466 5465 5464 5463 5463 5462 5462 5461 5461 5460 5460 5459 5459 5458 5458 5458 5458 5458 5459 5459 5460 5460 5461 5462 5463 5464 5464 5465
5468 5467 5467 5466 5465 5465 5464 5463 5462 5462 5461 5461 5460 5460 5459 5459 5458 5457 5457 5457 5456 5456 5455 5454 5454 5454 5454 5454 5453 5454 5454 5454 5454 5454 5455 5455 5456 5457 5458 5459 5460 5461 5461
5462 5461 5460 5460 5459 5459 5458 5457 5457 5456 5455 5454 5454 5454 5453 5452 5452 5452 5451 5451 5450 5449 5449 5449 5449 5449 5449 5449 5449 5449 5450 5450 5450 5450 5451 5452 5453 5454 5455 5456 5457 5457 5458
5456 5455 5455 5454 5453 5452 5452 5451 5450 5450 5449 5448 5448 5448 5447 5447 5447 5446 5446 5445 5445 5444 5444 5444 5444 5444 5444 5445 5445 5445 5446 5446 5446 5447 5448 5449 5450 5451 5452 5453 5454 5455 5455
5450 5449 5449 5448 5447 5447 5446 5445 5444 5444 5444 5443 5443 5443 5442 5442 5442 5442 5441 5441 5440 5440 5439 5439 5439 5439 5440 5440 5441 5441 5442 5443 5443 5444 5445 5446 5448 5449 5449 5450 5451 5452 5453
5445 5444 5444 5443 5442 5441 5440 5439 5439 5439 5438 5438 5438 5438 5438 5437 5437 5437 5437 5436 5436 5436 5436 5435 5435 5436 5436 5436 5437 5438 5439 5440 5441 5442 5443 5444 5446 5446 5447 5448 5449 5450 5451
5440 5439 5439 5438 5437 5436 5435 5434 5434 5434 5434 5433 5433 5433 5433 5433 5433 5432 5432 5432 5432 5432 5432 5432 5432 5432 5433 5433 5434 5436 5437 5438 5440 5441 5442 5443 5444 5445 5446 5447 5448 5448 5449
5435 5434 5434 5433 5432 5431 5430 5430 5430 5430 5430 5429 5429 5429 5429 5429 5429 5429 5429 5428 5428 5429 5429 5429 5430 5430 5431 5431 5432 5434 5435 5436 5438 5439 5440 5441 5442 5443 5444 5445 5446 5447 5448
5430 5430 5429 5429 5428 5427 5427 5426 5426 5426 5426 5426 5426 5426 5426 5426 5426 5426 5426 5426 5426 5426 5427 5427 5428 5429 5429 5430 5430 5432 5434 5435 5436 5437 5438 5440 5441 5442 5443 5444 5445 5446 5447
5426 5425 5425 5425 5425 5424 5424 5423 5423 5423 5424 5424 5424 5424 5424 5424 5424 5424 5424 5425 5425 5425 5425 5426 5427 5427 5428 5429 5430 5431 5432 5433 5435 5436 5437 5439 5440 5441 5443 5444 5444 5445 5446
5422 5422 5422 5422 5421 5421 5421 5421 5421 5421 5422 5422 5422 5422 5423 5423 5423 5423 5423 5423 5424 5424 5425 5425 5426 5426 5427 5428 5429 5431 5432 5433 5434 5435 5437 5438 5439 5441 5442 5443 5444 5445 5445
5418 5418 5418 5418 5419 5419 5419 5419 5419 5420 5420 5420 5421 5421 5421 5422 5422 5422 5423 5423 5423 5423 5424 5424 5425 5426 5427 5428 5429 5430 5431 5433 5434 5435 5436 5438 5439 5440 5441 5442 5443 5444 5444